{"data":{"norad_id":59348,"epoch":"2026-05-24T18:47:57.916608Z","epoch_age_seconds":103922,"freshness":"FRESH","line1":"1 59348U 24060A   26144.78330922  .00001597  00000+0  67550-4 0  9990","line2":"2 59348  43.0010 179.4560 0001023 272.4773  87.5962 15.27566853121761","mean_motion":15.27566853,"eccentricity":0.0001023,"inclination_deg":43.001,"raan_deg":179.456,"arg_perigee_deg":272.4773,"mean_anomaly_deg":87.5962,"bstar":6.755e-5,"rev_number":12176,"period_min":94.26756002017,"perigee_km":482.38655980472,"apogee_km":483.79036653449,"semimajor_km":6861.2254631696,"source":"CELESTRAK","updated_at":"2026-05-25T13:38:18.908084Z"}}